Theta_e
311 310 309 309 307 303 302 310 309 309 303 305 307 307 309 314 318 318 317 316 312 313 315 317 321 325 326 328 326 319 320 322 322 321 321 322 322 321 323 325 328 331 330 329 329
311 311 310 310 310 307 302 308 311 311 303 307 304 305 305 309 315 316 317 318 316 313 315 317 323 325 327 329 328 323 320 321 319 319 321 321 322 324 323 322 328 329 328 328 330
313 312 310 310 310 309 306 304 311 311 310 310 305 305 305 306 309 308 310 316 318 316 319 321 323 325 327 327 326 323 326 321 320 321 320 321 322 324 323 323 324 328 326 323 324
314 313 311 310 310 311 309 304 310 311 310 310 305 305 306 308 301 304 303 309 316 318 317 324 325 326 325 325 324 324 323 320 321 321 320 322 323 323 324 325 325 323 324 322 320
315 314 312 310 310 311 310 307 306 310 309 311 307 304 308 311 305 312 311 305 313 318 319 318 321 326 322 323 323 322 323 324 324 321 320 322 323 323 323 325 324 325 326 326 325
312 315 314 312 310 310 310 308 305 310 311 311 310 305 309 311 307 306 316 314 307 316 320 320 321 323 324 323 322 322 323 324 324 323 323 323 323 323 324 325 324 324 325 325 326
311 313 315 314 312 310 310 309 305 309 310 311 311 305 311 307 304 305 318 314 310 314 319 321 321 321 323 320 322 322 324 322 322 323 322 322 322 320 325 325 324 323 323 323 324
312 312 314 314 313 310 310 309 305 306 307 311 311 307 309 308 307 307 311 315 316 316 321 320 322 323 323 321 321 322 322 322 320 322 323 322 324 319 322 322 322 322 321 321 322
310 312 313 314 314 311 310 309 306 306 308 312 310 308 309 306 306 310 310 313 319 317 321 319 320 320 321 321 321 321 319 321 320 321 321 320 322 319 321 320 319 320 321 322 322
308 312 312 314 314 313 310 309 307 306 311 311 309 308 307 308 304 306 313 312 320 320 320 319 319 317 319 320 318 317 319 318 319 320 320 320 321 319 322 322 321 321 321 321 321
307 309 313 313 314 314 311 309 309 309 310 310 309 307 309 308 307 304 312 314 320 320 318 318 318 318 317 316 316 314 315 316 315 315 320 320 321 321 320 320 320 320 320 322 321
306 308 312 313 314 314 311 309 308 306 307 308 308 308 308 308 309 308 315 316 319 319 315 319 319 315 314 316 316 317 318 316 315 316 317 318 320 319 319 320 320 320 320 320 321
306 308 310 312 313 315 311 310 307 305 305 307 308 308 308 308 310 310 315 314 314 314 316 316 314 314 316 317 317 318 319 317 317 317 318 319 320 319 318 319 320 320 320 320 320
306 307 309 311 312 315 312 310 307 305 306 306 308 308 309 309 310 308 313 312 312 314 315 314 311 313 315 316 316 318 316 317 319 321 322 319 324 318 316 318 318 319 320 320 321
305 307 309 309 312 315 311 310 307 305 307 304 307 307 308 309 308 311 311 312 310 310 312 311 311 312 314 315 315 318 316 318 318 320 319 319 321 317 317 317 318 318 319 320 321
303 307 309 309 310 312 311 309 305 304 305 306 306 308 309 307 309 311 312 311 311 310 311 308 310 310 310 311 313 313 316 315 317 318 319 316 318 316 314 314 315 316 317 318 319
302 302 308 309 310 310 310 306 306 306 302 306 307 308 307 308 309 310 312 312 311 311 309 308 308 310 311 312 311 313 315 312 310 317 315 311 316 315 313 313 314 316 317 318 319
302 304 308 308 310 310 306 305 309 303 304 304 305 307 307 307 308 310 310 311 310 305 308 312 312 310 310 312 313 313 313 312 310 312 313 313 317 315 313 314 316 316 317 318 319
300 305 305 307 307 310 306 310 309 304 302 305 306 308 306 307 306 308 309 311 310 306 307 307 307 308 308 309 310 313 315 312 311 304 312 312 312 312 312 313 314 315 318 319 320
301 300 304 303 308 308 305 309 305 302 304 305 305 306 306 307 305 307 307 307 308 308 305 305 307 306 308 310 310 309 310 312 316 308 312 312 311 313 312 312 312 312 314 316 317
300 301 303 304 307 306 307 308 304 301 305 304 303 303 303 306 304 306 305 303 307 307 306 305 304 308 310 311 310 312 313 313 310 311 314 312 311 306 310 310 311 310 313 314 314
300 300 301 304 305 304 306 305 302 303 303 301 301 299 303 305 304 305 303 302 306 307 309 305 304 307 308 309 308 309 310 311 315 312 313 312 312 310 308 307 308 311 313 312 312
300 300 302 302 305 305 302 303 302 304 303 302 302 302 301 304 304 304 303 303 304 306 307 306 302 302 303 304 307 311 309 310 310 310 312 314 313 309 308 308 312 311 314 314 314
300 300 302 303 303 304 305 304 303 303 302 302 302 301 302 304 303 304 303 304 303 305 307 308 304 304 303 303 305 308 308 311 312 312 311 312 311 311 311 310 311 313 314 314 313
300 301 300 302 303 303 304 303 303 304 302 303 303 303 303 304 304 304 304 305 303 306 306 305 303 302 306 306 308 308 308 308 310 311 312 311 311 311 311 310 310 311 311 311 312
299 300 300 301 302 303 304 304 304 304 304 304 304 303 303 304 304 304 305 305 306 306 307 306 300 303 302 305 306 308 307 307 308 310 310 311 311 310 310 309 309 309 310 310 310
299 300 302 303 303 304 304 303 304 303 301 304 303 303 303 303 304 305 305 306 306 307 307 308 307 307 307 303 305 302 304 305 306 307 308 309 309 308 308 308 308 309 309 310 311
Wind_Speed
28 26 26 24 21 21 20 18 18 16 18 19 20 19 17 15 13 14 14 9 13 12 9 12 12 11 8 6 7 7 3 3 4 5 4 3 1 1 3 4 4 5 3 2 2
32 29 27 26 23 21 21 19 18 17 15 15 16 18 17 17 15 19 15 14 11 10 11 11 11 11 7 7 6 6 4 9 6 4 2 3 2 2 2 1 2 4 1 6 6
36 33 30 28 26 22 21 20 19 17 13 14 13 14 14 14 12 22 21 18 14 13 15 12 11 11 6 5 6 4 6 5 6 9 5 4 4 4 3 3 7 7 2 6 7
39 37 33 30 28 24 21 20 20 18 16 15 14 13 11 11 7 6 12 24 20 17 16 16 11 10 6 3 5 2 5 5 4 12 7 6 4 4 9 11 5 5 5 6 9
40 39 38 33 30 28 23 21 22 18 18 16 14 14 15 12 13 5 3 10 23 18 18 18 18 10 7 7 5 3 3 7 15 6 15 6 10 9 11 16 12 12 15 13 12
42 40 40 37 33 30 26 21 22 20 19 17 14 17 20 10 11 13 6 6 17 22 20 16 12 14 8 7 7 4 8 9 4 9 10 5 12 6 14 23 19 18 20 20 19
45 43 42 40 35 32 29 23 24 22 21 19 16 19 18 25 7 15 13 8 11 21 20 16 8 13 7 3 7 3 2 3 5 7 4 3 8 8 32 33 34 31 31 29 29
45 46 43 42 39 34 31 25 24 24 23 20 19 22 13 19 12 13 15 10 12 18 17 15 14 11 5 6 2 4 3 2 2 13 8 9 12 5 15 25 33 36 36 36 35
47 47 47 44 42 38 34 27 24 23 23 22 20 16 9 12 21 16 15 14 13 20 18 18 14 5 6 3 2 3 4 7 4 12 4 7 2 4 14 23 27 31 32 30 32
52 47 49 46 44 40 36 30 24 23 23 22 17 10 12 14 19 27 16 17 14 23 13 12 9 4 3 7 8 6 4 2 5 3 3 8 13 12 24 26 28 29 30 31 32
50 53 49 49 46 44 38 33 23 16 33 17 11 5 2 15 17 23 24 22 21 21 10 9 7 16 14 13 1 1 1 2 1 4 5 12 18 16 22 26 28 34 38 44 42
53 52 50 49 48 48 47 45 50 20 17 24 9 25 3 17 10 23 26 16 13 13 8 4 17 8 7 8 10 9 9 7 4 6 5 13 21 17 18 26 33 34 35 37 42
53 49 52 49 49 54 57 60 46 27 10 21 12 24 13 18 6 23 31 15 7 9 15 10 1 12 11 7 12 13 13 8 15 6 6 11 28 20 11 30 38 33 37 41 41
48 49 53 50 52 59 61 57 47 33 5 7 16 13 18 14 5 17 33 17 4 15 8 8 6 8 5 10 9 12 11 15 12 5 5 2 10 11 8 14 18 27 31 40 43
40 48 53 56 56 57 60 59 49 26 7 14 17 14 27 20 17 18 32 16 8 6 8 8 9 11 6 6 7 4 2 2 4 5 5 10 8 4 2 9 17 14 24 33 38
51 51 55 57 55 48 59 66 47 6 9 11 16 20 18 14 7 22 27 12 9 4 1 3 0 5 7 6 9 5 4 0 3 2 9 8 7 18 9 9 8 15 27 40 41
47 61 57 57 56 55 67 57 12 11 4 12 16 23 28 16 12 14 19 15 10 8 8 2 5 3 4 6 3 3 5 1 2 5 9 8 7 23 9 14 11 20 34 36 37
48 52 46 54 51 51 59 21 16 12 13 6 15 23 19 22 13 16 20 16 15 4 9 11 6 10 7 6 7 10 14 5 7 4 3 2 9 7 9 21 26 35 37 36 36
42 35 56 51 59 55 42 24 15 21 12 15 20 23 8 19 11 13 22 25 22 12 8 7 5 1 1 4 8 6 9 16 3 2 3 5 10 15 13 16 17 23 33 38 38
40 40 48 54 48 49 20 21 5 8 16 23 12 14 15 26 10 19 21 19 21 19 3 8 3 3 2 4 5 4 5 2 4 3 5 7 9 13 9 13 17 11 20 27 28
39 20 32 52 53 28 18 15 7 14 28 12 8 9 9 24 18 24 24 3 25 21 8 6 5 3 8 7 9 4 7 5 5 5 5 3 6 7 14 15 15 11 25 26 23
24 4 28 44 15 7 13 10 16 21 7 5 6 6 19 28 15 19 18 7 28 24 19 5 5 5 6 3 2 4 10 10 5 5 5 11 14 13 8 9 9 22 33 34 28
19 7 25 42 11 5 8 5 10 23 18 7 5 4 6 19 9 11 12 8 27 19 21 10 4 3 1 4 2 8 8 18 15 4 12 6 8 2 5 9 26 25 35 35 30
12 6 8 23 10 13 6 7 8 29 3 6 6 15 13 18 0 12 12 3 21 20 22 24 4 11 14 4 6 9 16 16 15 8 21 18 28 31 24 19 25 34 46 48 46
7 4 8 4 7 5 11 7 17 14 0 8 4 13 13 10 5 7 8 5 5 19 11 10 9 4 3 7 4 6 7 18 21 28 11 26 18 25 26 5 18 33 43 46 51
5 3 6 4 11 22 17 13 28 11 10 8 17 20 16 14 13 13 12 8 8 11 16 7 2 5 4 5 6 8 11 10 15 20 17 27 30 31 41 31 35 43 45 46 51
7 13 10 6 7 16 13 13 22 25 4 18 17 14 8 11 12 18 12 20 16 16 19 13 6 5 4 1 2 8 14 18 10 14 22 18 32 27 21 20 34 41 40 41 45
Wind_Direction
248 248 248 249 249 245 239 233 231 233 232 230 241 242 240 238 242 242 239 241 221 223 211 217 212 214 208 186 174 162 89 200 229 172 243 193 264 139 138 161 188 204 217 303 300
246 247 246 244 247 245 241 231 232 234 230 227 234 238 234 236 243 244 237 240 232 217 214 204 189 188 168 180 178 154 151 206 203 192 219 209 219 215 202 127 175 220 333 303 290
243 242 244 241 241 242 240 232 229 227 217 219 218 229 223 227 252 258 238 231 227 217 197 179 174 180 157 168 185 186 184 206 215 205 188 203 239 223 211 258 190 190 264 309 279
243 241 239 239 235 235 238 231 223 227 214 217 212 218 204 200 220 252 224 216 218 213 201 192 160 148 153 184 186 177 247 203 245 219 193 200 205 230 222 252 244 212 237 277 285
243 240 238 237 234 231 230 232 218 224 214 214 210 205 191 200 232 232 187 215 211 211 208 193 186 154 170 192 152 163 240 236 240 249 231 225 236 230 249 271 255 269 258 258 273
243 239 238 234 232 230 227 224 214 212 212 211 207 198 204 210 233 215 214 205 207 206 206 192 190 181 172 180 177 190 233 248 265 251 244 239 263 226 267 271 261 270 256 260 258
240 239 235 233 231 227 225 219 210 207 207 210 213 207 210 223 234 208 205 196 196 204 204 194 169 165 184 160 215 169 252 276 226 241 257 239 249 214 256 264 265 262 259 264 271
237 236 233 230 228 224 219 214 209 205 206 207 210 207 223 234 219 207 202 192 188 194 205 188 181 170 162 129 100 196 181 229 190 194 228 187 253 280 248 265 260 263 263 261 263
236 232 231 228 224 219 214 210 204 200 200 200 200 201 227 224 211 188 191 190 190 178 198 201 214 183 157 151 213 247 212 207 293 206 159 201 304 256 252 260 262 266 268 267 264
234 231 227 224 221 216 209 201 196 194 190 191 195 189 222 207 205 201 194 186 166 174 166 180 184 150 143 188 209 212 214 166 229 315 276 254 252 261 266 271 273 275 274 271 268
234 229 224 221 218 211 199 184 171 190 190 190 188 176 282 192 189 193 192 177 179 176 179 185 186 207 195 212 300 96 213 240 339 278 271 258 262 258 264 268 265 266 270 271 271
233 227 223 218 215 210 197 184 186 192 187 196 208 197 183 175 164 185 182 169 181 192 131 157 221 196 174 183 212 250 267 255 255 245 244 277 272 266 250 256 259 257 261 262 268
227 224 219 215 213 211 192 202 184 168 148 205 202 197 179 179 182 189 182 183 174 182 192 196 157 183 182 178 216 231 243 245 250 248 242 279 279 267 234 243 257 255 256 261 261
223 222 216 211 208 200 193 197 188 172 140 189 198 208 196 179 224 196 186 173 176 201 168 229 237 174 165 209 187 238 219 234 246 266 262 157 288 283 264 250 252 252 245 257 265
224 216 214 206 204 204 190 192 185 179 206 167 172 188 183 174 143 186 184 187 163 172 166 204 183 207 192 208 177 215 111 279 251 259 328 244 269 289 256 269 263 269 260 262 268
225 218 209 206 206 210 184 180 171 201 198 161 154 167 159 180 164 155 176 186 166 141 47 152 104 165 203 176 171 144 101 348 225 157 255 223 201 272 255 255 274 267 262 262 263
223 222 199 201 200 199 178 157 185 202 175 152 171 171 173 172 157 168 175 181 167 162 187 168 228 168 166 114 68 128 128 278 313 205 238 162 178 248 300 278 252 270 271 270 270
218 219 201 199 198 197 171 173 194 131 163 176 155 170 179 152 173 174 174 187 210 121 158 182 205 169 190 187 172 182 190 185 205 196 274 87 227 254 249 259 262 260 268 280 280
212 212 205 195 201 190 185 200 186 148 161 148 147 155 151 175 152 177 195 197 192 178 155 168 243 148 237 165 153 180 195 224 315 167 297 240 270 294 263 267 269 273 275 275 281
204 216 193 197 190 184 193 190 134 157 133 150 144 173 169 178 148 183 188 205 201 194 180 192 131 201 146 114 279 163 174 120 183 216 214 245 245 246 291 290 283 268 274 283 294
204 199 180 190 191 189 194 198 135 180 145 150 141 149 173 175 183 183 190 225 194 188 157 148 107 155 139 216 177 144 223 199 174 184 200 266 251 221 239 257 265 275 290 295 302
205 142 177 183 189 210 198 144 152 167 196 135 104 105 168 176 170 186 198 225 187 167 190 179 117 159 181 186 231 233 201 204 196 220 229 257 263 261 262 263 260 291 294 298 299
159 96 171 190 202 155 142 125 158 165 173 151 137 128 164 162 158 188 180 216 177 172 176 170 197 107 18 330 231 226 210 203 225 300 251 246 264 233 302 295 291 303 308 310 312
138 160 171 186 203 198 153 134 140 178 144 94 115 120 112 158 316 172 154 160 177 176 174 166 154 203 218 161 148 209 213 212 210 231 240 243 258 273 272 286 288 297 302 304 305
136 157 152 169 189 161 176 144 146 168 47 155 112 152 138 155 115 154 128 116 152 172 158 164 208 154 104 125 149 198 201 213 217 234 238 256 261 270 275 277 291 294 284 281 281
120 116 90 118 157 180 177 175 162 161 155 199 159 171 158 154 185 170 140 152 173 179 182 179 224 131 231 208 192 239 221 212 222 238 253 257 270 253 274 278 271 270 273 273 271
157 131 133 146 169 178 191 146 179 157 243 198 160 149 159 182 134 144 139 147 159 166 184 179 140 139 206 176 157 289 228 210 214 220 226 242 251 276 277 272 270 271 277 279 283